Weather in Megion

Russia / Khanty-Mansi Autonomous Okrug — Yugra     61°01′58″N   76°06′09″E
temp.,
°C
wind,
m/s
gust,
m/s
humid.,
%
clouds,
%
prec.,
mm/h
press.,
hPa
HPBL,
m
13 april, tue
tue1323:000w510905 0.0 1027191
02:000w612905 0.0 1027277
05:00−1w7129016 0.0 1028337
08:00+1w7128851 0.0 1028635
11:00+3wnw8127769 0.0 10281095
14:00+5wnw101473100 0.1 10271394
17:00+4wnw8137398 0.1 1027669
20:00+2w71197100 0.1 1026507
14 april, wed
wed1423:00+2w51098100 0.2 1025535
02:00+2ssw3599100 2.1 1021104
05:00+3wsw51192100 5.0 1018342
08:00+2w71398100 2.6 1018648
11:00+2wnw61198100 2.6 1019410
14:00+3wnw61095100 0.0 1021528
17:00+3nw4897100 0.0 1022344
20:00+2n2299100 0.0 102427
15 april, thu
thu1523:00+2ssw2298100 0.0 102339
02:00+2s4896100 0.0 1020160
05:00+4ssw71393100 0.1 1017317
08:00+7sw71590100 0.4 1014487
11:00+13wsw10166990 0.4 1011932
14:00+16wsw11165317 0.0 10091360
17:00+16w10165348 0.0 10071429
20:00+4n91285100 0.0 1010470
16 april, fri
fri1623:00+2nnw61188100 0.6 1013824
02:00+1wnw5796100 0.6 1013431
05:00−1nne7883100 0.8 1015528
08:00−4n7859100 0.0 1018843
11:00−3n784699 0.0 10211280
14:00−3n783767 0.0 10221448
17:00−5n7836100 0.0 10241354
20:00−7nne7838100 0.0 10251089
17 april, sat
sat1723:00−8ne674085 0.0 1026957
02:00−8ne674395 0.0 1025928
05:00−9ne574588 0.0 1025816
08:00−8ene6741100 0.0 1025944
11:00−5ene6628100 0.0 10241201
14:00−4ne6627100 0.0 10231373
17:00−4ne6731100 0.0 10231435
20:00−6ne6736100 0.0 10231227